Location: Nashville
(36.1660°N, 86.7840°W)
Time: 06:33:49
(UTC-05:00)

EO-88 - Pass Details

Date: 17 May 2022
Orbit: 457 x 464 km, 97.3° (Epoch: 27 June)

Event Time Altitude Azimuth Distance (km) Brightness Sun altitude
Rises 12:48:41 0° 317° (NW) 2,512 ? 73.2°
Enters shadow 13:24:51 -64° 189° (S) 11,925 ? 71.0°
Exits shadow 13:59:27 -42° 39° (NE) 9,207 ? 66.4°
